New Bedford, MA

6:30 AM EDT on October 18, 2017 (GMT -0400)
New Bedford Regional

Weather History for KEWB - October, 2013

Change the Weather History Date:

Friday, October 4, 2013

  Actual Average Record
Temperature  
Mean Temperature 60 °F -  
Max Temperature 72 °F 68 °F 83 °F (1967)
Min Temperature 48 °F 52 °F 33 °F (1996)
Degree Days  
Heating Degree Days 5    
Growing Degree Days 10 (Base 50)    
Moisture  
Dew Point 54 °F    
Average Humidity 89    
Maximum Humidity 100    
Minimum Humidity 53    
Precipitation  
Precipitation 0.01 in - - ()
Sea Level Pressure  
Sea Level Pressure 30.05 in    
Wind  
Wind Speed 1 mph (NNE)    
Max Wind Speed 9 mph    
Max Gust Speed -    
Visibility 9 miles    
Events Rain    
Averages and records for this station are not official NWS values.
T = Trace of Precipitation, MM = Missing Value Source: NWS Daily Summary

Daily Weather History Graph

Daily Weather History Graph

Search for Another Location

Airport or City:

Trip Planner

Search our weather history database for the weather conditions in past years. The results will help you decide how hot, cold, wet, or windy it might be!

Date:

Astronomy

Oct. 04, 2013 Rise Set
Actual Time 6:44 AM EDT 6:20 PM EDT
Civil Twilight 6:16 AM EDT 6:47 PM EDT
Nautical Twilight 5:44 AM EDT 7:19 PM EDT
Astronomical Twilight 5:11 AM EDT 7:52 PM EDT
Moon 6:16 AM EDT (10/4) 6:00 PM EDT (10/4)
Length of Visible Light 12h 31m
Length of Day
11h 36m
Waning Crescent, 0% of the Moon is Illuminated
Oct 4
Waning Crescent
Oct 4
New
Oct 11
First Quarter
Oct 18
Full
Oct 26
Last Quarter

Hourly Weather History & Observations

Time (EDT) Temp. Dew Point Humidity Pressure Visibility Wind Dir Wind Speed Gust Speed Precip Events Conditions
12:53 AM 52.0 °F 50.0 °F 93% 30.06 in 10.0 mi Calm Calm - N/A   Clear
1:53 AM 48.9 °F 48.0 °F 97% 30.06 in 10.0 mi Calm Calm - N/A   Clear
2:53 AM 51.1 °F 50.0 °F 96% 30.05 in 8.0 mi Calm Calm - N/A   Clear
3:53 AM 48.9 °F 46.9 °F 93% 30.04 in 10.0 mi Calm Calm - N/A   Clear
4:53 AM 48.9 °F 48.0 °F 97% 30.05 in 10.0 mi Calm Calm - N/A   Clear
5:53 AM 48.0 °F 46.9 °F 96% 30.05 in 10.0 mi Calm Calm - N/A   Clear
6:53 AM 50.0 °F 48.9 °F 96% 30.05 in 10.0 mi Calm Calm - N/A   Clear
7:53 AM 53.1 °F 52.0 °F 96% 30.06 in 10.0 mi Calm Calm - N/A   Partly Cloudy
8:53 AM 62.1 °F 57.0 °F 84% 30.07 in 10.0 mi Calm Calm - N/A   Overcast
9:53 AM 66.0 °F 57.0 °F 73% 30.06 in 10.0 mi Calm Calm - N/A   Overcast
10:53 AM 70.0 °F 53.1 °F 55% 30.05 in 10.0 mi Calm Calm - N/A   Mostly Cloudy
11:53 AM 72.0 °F 54.0 °F 53% 30.04 in 10.0 mi ESE 3.5 mph - N/A   Overcast
12:53 PM 64.9 °F 53.1 °F 65% 30.05 in 10.0 mi North 9.2 mph - N/A   Overcast
1:53 PM 62.1 °F 54.0 °F 75% 30.04 in 10.0 mi NNE 6.9 mph - N/A   Overcast
2:53 PM 60.1 °F 55.9 °F 86% 30.04 in 9.0 mi NE 8.1 mph - 0.00 in Rain Light Rain
3:53 PM 61.0 °F 55.9 °F 83% 30.02 in 10.0 mi Variable 4.6 mph - 0.01 in   Mostly Cloudy
4:53 PM 62.1 °F 57.0 °F 84% 30.03 in 10.0 mi North 3.5 mph - N/A   Overcast
5:15 PM 60.8 °F 57.2 °F 88% 30.03 in 10.0 mi North 3.5 mph - N/A   Mostly Cloudy
5:26 PM 60.8 °F 57.2 °F 88% 30.03 in 10.0 mi North 3.5 mph - N/A   Mostly Cloudy
5:53 PM 60.1 °F 57.0 °F 90% 30.04 in 10.0 mi Calm Calm - N/A   Mostly Cloudy
6:53 PM 59.0 °F 57.0 °F 93% 30.05 in 10.0 mi Calm Calm - N/A   Overcast
7:17 PM 59.0 °F 57.2 °F 94% 30.04 in 10.0 mi Calm Calm - N/A   Overcast
7:48 PM 57.2 °F 55.4 °F 94% 30.05 in 10.0 mi Calm Calm - N/A   Scattered Clouds
7:53 PM 57.9 °F 55.9 °F 93% 30.05 in 10.0 mi Calm Calm - N/A   Partly Cloudy
8:53 PM 55.0 °F 54.0 °F 96% 30.05 in 10.0 mi Calm Calm - N/A   Scattered Clouds
9:53 PM 55.0 °F 54.0 °F 96% 30.06 in 4.0 mi Calm Calm - N/A   Partly Cloudy
9:55 PM 53.6 °F 53.6 °F 100% 30.06 in 1.8 mi Calm Calm - N/A   Scattered Clouds
10:05 PM 53.6 °F 53.6 °F 100% 30.06 in 3.0 mi Calm Calm - N/A   Scattered Clouds
10:31 PM 53.6 °F 53.6 °F 100% 30.06 in 0.8 mi Calm Calm - N/A   Partly Cloudy
10:41 PM 53.6 °F 53.6 °F 100% 30.06 in 3.0 mi Calm Calm - N/A   Mostly Cloudy
10:53 PM 55.0 °F 54.0 °F 96% 30.06 in 10.0 mi Calm Calm - N/A   Overcast
11:53 PM 55.9 °F 54.0 °F 93% 30.05 in 8.0 mi Calm Calm - N/A   Overcast